CW5752 Weather Reports


Display with metric or nautical units.
time (UTC)temp
F
wind
direction
speed
MPH
gust
MPH
rain 1hr
in
rain 24hr
in
rain mn
in
humidity
%
barometer
mb
20260510023520 69 209 0.0 2.0 0.00 0.30 0.30 64 1010.0
20260510022521 69 209 0.0 2.0 0.00 0.30 0.30 64 1009.9
20260510021515 69 209 0.0 2.0 0.00 0.30 0.30 66 1009.8
20260510020521 69 209 0.0 2.0 0.00 0.30 0.30 68 1009.7
20260510015541 69 209 0.0 2.0 0.00 0.30 0.30 69 1009.5
20260510014521 69 0.0 0.0 0.00 0.30 0.30 70 1009.4
20260510013541 70 0.0 0.0 0.00 0.30 0.30 69 1009.2
20260510012521 70 0.0 0.0 0.00 0.30 0.30 71 1009.2
20260510011521 70 0.0 0.0 0.00 0.30 0.30 70 1009.0
20260510010515 71 0.0 0.0 0.00 0.30 0.30 69 1009.0
20260510005520 72 0.0 0.0 0.00 0.30 0.30 68 1008.9
20260510004520 72 0.0 0.0 0.00 0.30 0.30 68 1008.8
20260510003521 73 209 0.0 2.0 0.00 0.30 0.30 64 1008.7
20260510002601 74 209 0.0 2.0 0.00 0.30 0.30 62 1008.5
20260510001541 75 209 0.0 3.0 0.00 0.30 0.30 61 1008.5
20260510000516 75 209 0.0 6.0 0.00 0.30 0.30 60 1008.4
20260509235520 76 176 0.0 4.0 0.00 0.30 0.30 57 1008.4
20260509234541 77 176 0.0 6.0 0.00 0.30 0.30 57 1008.3
20260509233521 77 183 3.0 8.0 0.00 0.30 0.30 54 1008.4
20260509232541 78 179 2.0 4.0 0.00 0.30 0.30 54 1008.4
20260509231520 78 193 1.0 6.0 0.00 0.30 0.30 56 1008.4
20260509230521 78 186 2.0 6.0 0.00 0.30 0.30 55 1008.4
20260509225515 79 184 3.0 8.0 0.00 0.30 0.30 53 1008.4
20260509224520 79 223 2.0 8.0 0.00 0.30 0.30 54 1008.4
20260509223541 79 206 2.0 5.0 0.00 0.30 0.30 53 1008.3
20260509222546 79 203 1.0 7.0 0.00 0.30 0.30 52 1008.2
20260509221521 80 199 2.0 5.0 0.00 0.30 0.30 51 1008.1
20260509220520 80 210 1.0 9.0 0.00 0.30 0.30 53 1008.2
20260509215516 80 186 2.0 6.0 0.00 0.30 0.30 54 1008.1
20260509214515 79 189 2.0 6.0 0.00 0.30 0.30 55 1008.1
20260509213520 80 198 2.0 7.0 0.00 0.30 0.30 54 1008.1
20260509212520 79 205 2.0 6.0 0.00 0.30 0.30 57 1008.1
20260509211520 79 232 1.0 7.0 0.00 0.30 0.30 56 1008.2
20260509210539 79 237 2.0 8.0 0.00 0.30 0.30 55 1008.3
20260509205520 79 177 2.0 8.0 0.00 0.30 0.30 56 1008.2
20260509204515 79 268 2.0 7.0 0.00 0.30 0.30 57 1008.5
20260509203521 79 209 1.0 6.0 0.00 0.30 0.30 55 1008.7
20260509202520 78 264 3.0 8.0 0.00 0.30 0.30 56 1008.8
20260509201521 78 235 3.0 8.0 0.00 0.30 0.30 58 1009.0
20260509200520 78 240 2.0 10.0 0.00 0.30 0.30 55 1009.1
20260509195521 78 229 1.0 7.0 0.00 0.30 0.30 53 1009.1
20260509194515 78 235 1.0 6.0 0.00 0.30 0.30 58 1009.2
20260509193535 77 226 3.0 7.0 0.00 0.30 0.30 53 1009.2
20260509192520 77 223 1.0 7.0 0.00 0.30 0.30 61 1009.2
20260509191520 75 199 0.0 5.0 0.00 0.30 0.30 58 1009.3
20260509190521 76 210 2.0 5.0 0.00 0.30 0.30 61 1009.4
20260509185521 75 189 3.0 7.0 0.00 0.30 0.30 65 1009.5
20260509184521 74 191 1.0 5.0 0.00 0.30 0.30 65 1009.5
20260509183535 74 207 1.0 6.0 0.00 0.30 0.30 65 1009.6
20260509182540 73 204 2.0 5.0 0.00 0.30 0.30 68 1009.5
20260509181520 72 193 2.0 7.0 0.00 0.30 0.30 65 1009.5
20260509180520 71 207 0.0 4.0 0.00 0.30 0.30 71 1009.5
20260509175541 71 204 1.0 4.0 0.00 0.30 0.30 67 1009.5
20260509174541 70 202 0.0 5.0 0.00 0.30 0.30 69 1009.6
20260509173601 69 202 1.0 7.0 0.00 0.30 0.30 73 1009.9
20260509172515 69 215 2.0 6.0 0.00 0.30 0.30 71 1010.0
20260509171520 69 191 1.0 6.0 0.00 0.30 0.30 76 1010.2
20260509170521 67 201 1.0 4.0 0.00 0.30 0.30 78 1010.3
20260509165521 67 197 1.0 7.0 0.00 0.30 0.30 77 1010.4
20260509164521 66 217 1.0 5.0 0.00 0.30 0.30 80 1010.3
20260509163520 65 216 0.0 5.0 0.00 0.30 0.30 80 1010.4
20260509162515 65 210 1.0 5.0 0.00 0.30 0.30 81 1010.5
20260509161515 64 193 1.0 4.0 0.00 0.30 0.30 81 1010.4
20260509160521 63 193 1.0 6.0 0.00 0.30 0.30 81 1010.5
20260509155521 63 208 1.0 4.0 0.00 0.30 0.30 82 1010.3
20260509154540 62 202 1.0 4.0 0.00 0.30 0.30 82 1010.4
20260509153540 62 227 1.0 4.0 0.00 0.30 0.30 84 1010.3
20260509152520 62 231 0.0 4.0 0.00 0.30 0.30 85 1010.4
20260509151515 61 212 1.0 4.0 0.00 0.30 0.30 87 1010.5
20260509150521 60 211 0.0 5.0 0.00 0.30 0.30 88 1010.2
20260509145521 60 209 0.0 4.0 0.00 0.30 0.30 88 1010.2
20260509144541 59 208 0.0 4.0 0.00 0.30 0.30 88 1010.1
20260509143520 60 215 1.0 4.0 0.00 0.30 0.30 88 1010.1
20260509142541 60 218 0.0 4.0 0.00 0.30 0.30 89 1009.8
20260509141516 59 248 0.0 4.0 0.00 0.30 0.30 91 1009.7
20260509140516 59 250 0.0 4.0 0.00 0.30 0.30 91 1009.6
20260509135541 58 263 0.0 3.0 0.00 0.30 0.30 91 1009.4
20260509134521 58 284 0.0 3.0 0.00 0.30 0.30 91 1009.4
20260509133520 58 0.0 2.0 0.00 0.30 0.30 91 1009.4
20260509132520 58 288 0.0 2.0 0.00 0.30 0.30 91 1009.4
20260509131521 58 288 0.0 2.0 0.00 0.30 0.30 91 1009.5
20260509130515 58 290 0.0 3.0 0.00 0.30 0.30 92 1009.5
20260509125520 58 300 0.0 3.0 0.00 0.30 0.30 92 1009.6
20260509124520 58 318 1.0 4.0 0.00 0.30 0.30 92 1009.5
20260509123520 58 5 0.0 2.0 0.00 0.30 0.30 93 1009.3
20260509122521 57 0.0 2.0 0.00 0.30 0.30 93 1009.3
20260509121600 57 0.0 0.0 0.00 0.30 0.30 94 1009.1
20260509120520 57 0.0 0.0 0.00 0.30 0.30 94 1008.9
20260509115515 57 0.0 0.0 0.00 0.30 0.30 94 1008.8
20260509114520 57 0.0 0.0 0.00 0.30 0.30 94 1008.8
20260509113520 57 0.0 0.0 0.00 0.30 0.30 94 1008.8
20260509112601 56 0.0 0.0 0.00 0.30 0.30 94 1008.8
20260509111521 56 0.0 0.0 0.00 0.30 0.30 94 1008.9
20260509110520 56 0.0 0.0 0.00 0.30 0.30 94 1008.9
20260509105515 56 0.0 0.0 0.00 0.30 0.30 94 1008.7
20260509104515 56 11 0.0 2.0 0.00 0.30 0.30 94 1008.7
20260509103541 56 10 0.0 2.0 0.00 0.30 0.30 94 1008.6
20260509102540 56 28 0.0 2.0 0.00 0.30 0.30 94 1008.6
20260509101520 56 0.0 0.0 0.00 0.30 0.30 94 1008.5
20260509100520 56 0.0 2.0 0.00 0.30 0.30 94 1008.6
20260509095520 56 0.0 1.0 0.00 0.30 0.30 94 1008.7
20260509094515 56 0.0 0.0 0.00 0.30 0.30 94 1008.3
20260509093520 56 0.0 0.0 0.00 0.30 0.30 93 1008.2
20260509092520 55 0.0 0.0 0.00 0.30 0.30 93 1008.1
20260509091520 55 0.0 0.0 0.00 0.30 0.30 93 1007.9
20260509090520 55 0.0 0.0 0.00 0.30 0.30 93 1008.0
20260509085520 56 0.0 0.0 0.01 0.30 0.30 93 1007.8
20260509084520 56 0.0 0.0 0.01 0.30 0.30 93 1007.9
20260509083515 56 28 0.0 1.0 0.01 0.30 0.30 93 1007.7
20260509082520 57 0.0 0.0 0.01 0.30 0.30 93 1007.8
20260509081520 57 0.0 2.0 0.04 0.30 0.30 93 1007.7
20260509080541 57 0.0 0.0 0.06 0.30 0.30 92 1007.8
20260509075520 57 0.0 0.0 0.06 0.29 0.28 92 1007.7
20260509074521 57 0.0 0.0 0.12 0.29 0.28 92 1007.7
20260509073516 57 0.0 0.0 0.15 0.29 0.28 92 1007.8
20260509072516 57 28 0.0 2.0 0.19 0.29 0.28 92 1008.0
20260509071520 57 18 0.0 3.0 0.23 0.26 0.26 92 1007.4
20260509070520 57 323 0.0 2.0 0.24 0.24 0.24 91 1007.8
20260509065520 57 0.0 0.0 0.21 0.21 0.22 91 1008.6
20260509064520 57 0.0 2.0 0.17 0.17 0.17 91 1008.9
20260509063520 57 322 0.0 2.0 0.13 0.13 0.13 90 1009.1
20260509062522 57 321 0.0 3.0 0.10 0.10 0.10 89 1009.3
20260509061520 58 327 0.0 3.0 0.03 0.03 0.03 88 1009.3
20260509060520 58 335 0.0 3.0 0.00 0.00 0.00 86 1009.5
20260509055520 59 336 0.0 2.0 0.00 0.00 0.00 84 1009.5
20260509054520 59 336 1.0 7.0 0.00 0.00 0.00 83 1010.0
20260509053517 60 331 1.0 10.0 0.00 0.00 0.00 82 1009.9
20260509052520 60 332 1.0 8.0 0.00 0.00 0.00 82 1009.4
20260509051523 61 334 1.0 6.0 0.00 0.00 0.00 82 1009.5
20260509050522 61 344 1.0 8.0 0.00 0.00 0.00 80 1009.1
20260509045515 62 332 3.0 8.0 0.00 0.00 0.00 78 1009.0
20260509044521 63 315 1.0 3.0 0.00 0.00 0.00 73 1008.7
20260509043521 63 309 0.0 2.0 0.00 0.00 0.00 69 1008.4
20260509042541 64 309 0.0 3.0 0.00 0.00 0.00 66 1008.4
20260509041521 63 308 0.0 3.0 0.00 0.00 0.00 68 1008.2
20260509040521 63 187 1.0 4.0 0.00 0.00 0.00 66 1008.3
20260509035516 64 0.0 3.0 0.00 0.00 0.00 64 1008.0
20260509034516 63 165 0.0 2.0 0.00 0.00 0.00 65 1007.9
20260509033521 63 165 0.0 2.0 0.00 0.00 0.00 66 1007.8
20260509032521 64 165 0.0 2.0 0.00 0.00 0.00 67 1007.9
20260509031521 64 165 0.0 2.0 0.00 0.00 0.00 65 1008.1
20260509030539 65 165 0.0 2.0 0.00 0.00 0.00 63 1008.3
20260509025521 65 165 0.0 4.0 0.00 0.00 0.00 63 1008.5
20260509024516 65 165 0.0 3.0 0.00 0.00 0.00 64 1008.4